STARLINK-35192, 65933

Orbit data source: Space-Track

STARLINK-35192, 65933 is a payload satellite owned by SpaceX/Seattle (US) in LEO that was launched on Wed, 08 Oct 2025 UTC via an FALCON 9 launch vehicle from the Air Force Western Test Range (AFWTR). Payload-class satellites include a variety of spacecraft equipped with specific instruments for various scientific and technological missions. These include communications satellites like Starlink; space stations such as the ISS; scientific satellites like the Hubble; Earth observation satellites from companies like Planet Labs, Umbra, and HawkEye 360; GPS; miniature CubeSats for education and research; and military/defense satellites.

Loading next visibility...
Identifier
65933, 2025-225Z
Orbit
LEO
Country
Flag of USUS
Related business
Manufacturer
SpaceX/Seattle
Mission
Operational Commercial Communications
Bus & Motor
STARLINK V2MO, Unknown motor
Mass
575 kg wet, ~530 kg dry
Launch date (UTC)
2025-10-08 (8 months ago)
Launch vehicle
FALCON 9
Launch site
Air Force Western Test Range (AFWTR)
Object type
Payload
Rocket body
Debris
Shape & HBR
Box + 2 Pan, 17.7 m
Radar Cross Section
36.964 m², Large (>1 m²)

Expand to show TLE details & history
Last TLE update: 6 hours ago

TLE from 6 hours ago
0 STARLINK-35192
1 65933U 25225Z   26151.50002315  .00041786  00000-0  12423-2 0  9993
2 65933  53.1579 141.0349 0001338  75.8530  35.6864 15.34366239  5754
Epoch: 2026-05-31T12:00Z
TLE epoch observation values (Epoch: 2026-05-31T12:00:02.000Z)
Latitude
48.25095°
Longitude
-164.57294°
Altitude
467.479 km
Speed
7.639 km/s
True Right ascension
17h 37m 44s
True Declination
48° 04' 22"
Sunlit
Object was in daylight at epoch
Visualization orbit readout
Latitude
Unknown
Longitude
Unknown
Altitude
Unknown
Speed
Unknown
Apparent Right ascension
Unknown
Apparent Declination
Unknown
Sunlit
N/A
Visualization observer readout
Local Sidereal Time
04:02:05
Azimuth
Unknown
Elevation
Unknown
Doppler factor
Unknown
Orbital elements
Apogee altitude
463.976 km
Perigee altitude
462.145 km
Semi-major axis
6,841.198 km
Eccentricity
0.00013
Inclination
53.1579°
RAAN
141.0349°
Arg. of periapsis
75.853°
True anomaly
35.69535°
Mean anomaly
35.6864°
Eccentric anomaly
35.69087°
Mean motion
3.8357 °/min
Orbital period
93.86 mins
BSTAR
0.0012423
Loading maneuver chart data...
Computing Atmospheric mass density...
Loading historical data...
Loading historical data...
Loading historical data...
Loading historical data...
Loading historical data...
Loading historical data...
Loading historical data...

Documentation

Showing up to 5 results
|